1508461201.15,791,14.94,73884.0,1.23,-33.55,-35.47,0,*77
1508461202.38,792,14.94,73884.3,1.23,-34.01,-35.77,0,*71
1508461203.6,793,14.94,73884.5,1.23,-33.89,-35.71,0,*71
1508461204.83,794,14.94,73886.0,1.23,-34.01,-35.77,0,*77
1508461206.02,795,14.94,73886.3,1.23,-33.83,-35.71,0,*7D
1508461207.25,796,14.94,73888.5,1.21,-33.95,-35.77,0,*7D
1508461208.47,797,14.94,73888.5,1.21,-34.07,-35.77,0,*70
1508461209.73,798,14.94,73888.8,1.21,-34.13,-35.95,0,*76
1508461210.98,799,14.94,73888.8,1.17,-34.13,-35.83,0,*75
1508461212.25,800,14.94,73888.0,1.21,-33.73,-35.35,0,*73
1508461213.52,801,14.94,73888.5,1.21,-33.49,-35.35,0,*7B
1508461214.78,802,14.94,73892.0,1.21,-33.77,-35.53,0,*75
1508461216.04,803,14.94,73894.0,1.17,-34.01,-35.77,0,*71
1508461217.29,804,14.94,73888.8,1.21,-34.07,-35.83,0,*7E
1508461218.54,805,14.94,73890.5,1.17,-34.19,-35.89,0,*7F
1508461219.79,806,14.94,73894.0,1.17,-34.19,-36.01,0,*7F
1508461221.02,807,14.94,73894.3,1.17,-33.95,-35.77,0,*7F
1508461222.24,808,14.94,73890.5,1.15,-33.83,-35.65,0,*76
1508461223.47,809,14.94,73894.3,1.15,-33.67,-35.41,0,*7B
1508461224.67,810,14.94,73890.8,1.15,-33.67,-35.59,0,*7A
1508461225.91,811,14.94,73888.8,1.15,-33.61,-35.41,0,*74
1508461227.11,812,14.94,73890.8,1.15,-33.55,-35.29,0,*7E
1508461228.36,813,14.94,73890.5,1.15,-33.49,-35.23,0,*78
1508461229.61,814,14.94,73890.0,1.15,-33.43,-35.23,0,*75
1508461230.84,815,14.94,73890.3,1.13,-33.37,-35.29,0,*7B
1508461232.08,816,14.94,73890.5,1.15,-33.27,-35.07,0,*73
1508461233.33,817,14.94,73890.5,1.15,-33.43,-35.07,0,*70
1508461234.55,818,14.94,73890.3,1.15,-33.55,-35.41,0,*7A
1508461235.82,819,14.94,73888.3,1.13,-33.61,-35.35,0,*79
1508461237.02,820,14.94,73888.5,1.15,-33.55,-35.29,0,*7F
1508461238.27,821,14.94,73884.5,1.15,-33.43,-35.23,0,*73
1508461239.51,822,14.94,73888.0,1.15,-33.43,-35.23,0,*70
1508461240.73,823,14.94,73888.0,1.15,-33.55,-35.23,0,*76
1508461241.93,824,14.94,73888.8,1.15,-33.55,-35.13,0,*72
1508461243.18,825,14.94,73892.0,1.13,-33.49,-35.13,0,*78
1508461244.4,826,14.94,73888.5,1.15,-33.21,-34.95,0,*7C
1508461245.65,827,14.94,73890.8,1.13,-33.43,-35.17,0,*74
1508461246.85,828,14.94,73892.0,1.15,-33.37,-35.13,0,*7A
1508461248.05,829,14.94,73890.3,1.15,-33.55,-35.29,0,*76
1508461249.26,830,14.94,73890.8,1.15,-33.55,-35.29,0,*7E
1508461250.48,831,14.94,73888.3,1.15,-33.83,-35.65,0,*7C
1508461251.68,832,14.94,73890.5,1.15,-33.83,-35.47,0,*7F
1508461252.95,833,14.94,73890.0,1.13,-33.89,-35.65,0,*72
1508461254.17,834,14.94,73894.3,1.15,-33.61,-35.47,0,*75
1508461255.43,835,14.94,73890.3,1.13,-33.49,-35.29,0,*70
1508461256.65,836,14.94,73886.0,1.15,-33.09,-34.89,0,*7A
1508461257.87,837,14.94,73888.8,1.15,-32.85,-34.71,0,*79
1508461259.11,838,14.94,73888.5,1.13,-32.63,-34.41,0,*7B
1508461260.3,839,14.94,73890.8,1.15,-32.91,-34.71,0,*72
1508461261.51,840,14.94,73886.5,1.15,-32.69,-34.47,0,*7E
1508461262.75,841,14.94,73884.3,1.17,-32.57,-34.35,0,*75
1508461264.01,842,14.94,73882.8,1.17,-33.27,-35.07,0,*70
1508461265.23,843,14.94,73882.0,1.21,-33.21,-34.89,0,*75
1508461266.44,844,14.94,73882.5,1.17,-33.03,-34.71,0,*70
1508461267.66,845,14.94,73882.0,1.17,-33.03,-34.71,0,*71
1508461268.93,846,14.94,73890.0,1.21,-32.97,-34.65,0,*7E
1508461270.17,847,14.94,73888.0,1.21,-32.85,-34.47,0,*7C
1508461271.42,848,14.94,73888.5,1.17,-33.21,-34.95,0,*76
1508461272.65,849,14.94,73888.8,1.21,-33.15,-34.83,0,*72
1508461273.89,850,14.94,73890.3,1.17,-33.21,-35.07,0,*75
1508461275.15,851,14.94,73888.0,1.17,-33.43,-35.07,0,*70
1508461276.37,852,14.94,73886.0,1.21,-33.37,-35.17,0,*74
1508461277.61,853,14.94,73888.0,1.21,-32.97,-34.71,0,*7F
1508461278.85,854,14.94,73890.3,1.17,-33.21,-34.95,0,*7B
1508461280.07,855,14.94,73886.5,1.21,-33.37,-35.17,0,*73
1508461281.31,856,14.94,73890.3,1.21,-33.37,-35.23,0,*77
1508461282.56,857,14.94,73888.0,1.17,-33.21,-35.07,0,*72
1508461283.77,858,14.94,73888.3,1.21,-33.37,-35.17,0,*7E
1508461285.02,859,14.94,73890.5,1.17,-33.43,-35.29,0,*74
1508461286.26,860,14.94,73886.5,1.17,-33.21,-34.95,0,*7C
1508461287.51,861,14.94,73884.0,1.21,-33.03,-34.65,0,*77
1508461288.73,862,14.94,73882.3,1.21,-33.21,-35.01,0,*77
1508461289.97,863,14.94,73886.5,1.21,-32.79,-34.59,0,*76
1508461291.21,864,14.94,73886.8,1.21,-32.85,-34.71,0,*78
1508461292.47,865,14.94,73884.5,1.21,-33.31,-35.23,0,*71
1508461293.69,866,14.94,73882.5,1.21,-33.37,-35.17,0,*73
1508461294.93,867,14.94,73882.8,1.21,-33.55,-35.35,0,*76
1508461296.19,868,14.94,73882.3,1.21,-33.61,-35.41,0,*7D
1508461297.46,869,14.94,73886.8,1.21,-33.49,-35.23,0,*72
1508461298.67,870,14.94,73884.3,1.21,-33.21,-34.89,0,*75
1508461299.91,871,14.94,73880.5,1.21,-32.97,-34.71,0,*7F
1508461301.15,872,14.94,73882.8,1.21,-32.63,-34.47,0,*72
1508461302.38,873,14.94,73886.3,1.21,-33.15,-34.83,0,*7B
1508461303.62,874,14.94,73886.8,1.21,-33.21,-35.07,0,*76
1508461304.89,875,14.94,73882.8,1.21,-33.31,-35.07,0,*76
1508461306.1,876,14.94,73882.3,1.21,-33.15,-35.01,0,*75
1508461307.32,877,14.94,73884.3,1.23,-33.15,-34.83,0,*7D
1508461308.54,878,14.94,73880.5,1.23,-33.27,-35.13,0,*7B
1508461309.75,879,14.94,73886.5,1.23,-33.31,-35.17,0,*79
1508461310.98,880,14.94,73888.0,1.23,-33.43,-35.29,0,*77
1508461312.22,881,14.94,73886.3,1.23,-33.43,-35.35,0,*7B
1508461313.44,882,14.94,73890.8,1.23,-33.31,-35.17,0,*7D
1508461314.66,883,14.94,73888.0,1.23,-33.27,-35.13,0,*7F
1508461315.88,884,14.94,73884.0,1.21,-33.37,-35.17,0,*7F
1508461317.1,885,14.94,73888.5,1.23,-33.43,-35.29,0,*72
1508461318.34,886,14.94,73886.5,1.21,-33.55,-35.41,0,*7A
1508461319.58,887,14.94,73884.8,1.23,-33.89,-35.65,0,*7E
1508461320.81,888,14.94,73886.3,1.21,-34.07,-35.77,0,*71
1508461322.04,889,14.94,73890.0,1.17,-34.13,-35.89,0,*71
1508461323.26,890,14.94,73886.8,1.21,-33.95,-35.77,0,*74
1508461324.53,891,14.94,73884.8,1.17,-33.77,-35.65,0,*7F
1508461325.78,892,14.94,73890.0,1.17,-34.13,-35.83,0,*71
1508461327.03,893,14.94,73888.0,1.17,-34.19,-35.89,0,*70
1508461328.25,894,14.94,73888.3,1.15,-34.13,-35.89,0,*7F
1508461329.53,895,14.94,73890.5,1.13,-34.35,-35.95,0,*71
1508461330.78,896,14.94,73888.0,1.13,-34.01,-35.71,0,*7F
1508461332.0,897,14.94,73894.5,1.15,-33.61,-35.47,0,*7C
1508461333.25,898,14.94,73890.8,1.15,-33.61,-35.41,0,*75
1508461334.52,899,14.94,73892.0,1.13,-34.01,-35.65,0,*75
1508461335.77,900,14.94,73892.0,1.13,-33.67,-35.53,0,*76
1508461336.97,901,14.94,73888.8,1.15,-33.67,-35.47,0,*74
1508461338.22,902,14.94,73888.8,1.15,-33.61,-35.35,0,*74
1508461339.49,903,14.88,73890.0,1.13,-33.61,-35.35,0,*73
1508461340.75,904,14.94,73894.3,1.13,-33.61,-35.35,0,*74
1508461342.0,905,14.88,73888.0,1.13,-33.43,-35.13,0,*71
1508461343.25,906,14.94,73892.8,1.13,-33.31,-35.13,0,*77
1508461344.5,907,14.94,73892.3,1.15,-33.27,-35.07,0,*72
1508461345.74,908,14.94,73890.0,1.11,-33.09,-34.83,0,*78
1508461346.96,909,14.94,73892.5,1.11,-33.31,-35.13,0,*7A
1508461348.16,910,14.88,73888.5,1.15,-33.21,-34.89,0,*75
1508461349.42,911,14.94,73894.0,1.13,-33.27,-34.83,0,*7E
1508461350.67,912,14.94,73888.3,1.13,-32.75,-34.59,0,*7C
1508461351.89,913,14.94,73894.0,1.15,-32.57,-34.35,0,*71
1508461353.11,914,14.94,73890.5,1.15,-32.91,-34.65,0,*79
1508461354.34,915,14.94,73894.5,1.15,-32.91,-34.65,0,*78
1508461355.53,916,14.94,73888.8,1.15,-32.91,-34.71,0,*7E
1508461356.75,917,14.94,73892.0,1.17,-33.03,-34.71,0,*77
1508461357.95,918,14.94,73894.0,1.15,-33.03,-34.77,0,*7C
1508461359.17,919,14.94,73890.8,1.15,-33.09,-34.89,0,*76
1508461360.42,920,14.94,73894.5,1.15,-32.75,-34.53,0,*71
1508461361.64,921,14.94,73894.0,1.15,-32.91,-34.53,0,*7A
1508461362.89,922,14.94,73890.8,1.17,-33.09,-34.77,0,*7D
1508461364.1,923,14.94,73890.0,1.17,-32.91,-34.71,0,*7A
1508461365.34,924,14.94,73890.8,1.17,-32.69,-34.31,0,*7E
1508461366.59,925,14.94,73890.3,1.17,-32.75,-34.47,0,*73
1508461367.84,926,14.94,73890.3,1.17,-32.69,-34.53,0,*78
1508461369.11,927,14.94,73894.3,1.21,-32.85,-34.65,0,*7B
1508461370.32,928,14.94,73892.5,1.21,-33.15,-34.89,0,*7E
1508461371.58,929,14.94,73890.5,1.21,-32.97,-34.65,0,*76
1508461372.79,930,14.94,73890.5,1.21,-32.51,-34.41,0,*72
1508461374.06,931,14.94,73888.0,1.21,-32.97,-34.65,0,*7F
1508461375.28,932,14.94,73890.0,1.21,-33.21,-35.01,0,*73
1508461376.49,933,14.94,73888.5,1.21,-32.69,-34.41,0,*7A
1508461377.71,934,14.94,73890.3,1.21,-32.69,-34.47,0,*7B
1508461378.97,935,14.94,73890.0,1.23,-32.79,-34.65,0,*79
1508461380.24,936,14.94,73890.5,1.25,-33.09,-34.95,0,*75
1508461381.5,937,14.88,73884.5,1.25,-32.79,-34.53,0,*78
1508461382.71,938,14.94,73888.5,1.23,-32.63,-34.41,0,*79
1508461383.95,939,14.94,73888.3,1.25,-32.57,-34.35,0,*7A
1508461385.18,940,14.94,73884.5,1.25,-32.39,-34.19,0,*72
1508461386.37,941,14.94,73888.3,1.23,-32.91,-34.59,0,*73
1508461387.58,942,14.94,73884.0,1.25,-32.39,-34.07,0,*7F
1508461388.81,943,14.94,73888.5,1.25,-32.45,-34.25,0,*75
1508461390.04,944,14.88,73884.3,1.25,-32.45,-34.25,0,*72
1508461391.25,945,14.94,73886.8,1.27,-32.39,-34.31,0,*7F
1508461392.49,946,14.94,73886.0,1.29,-32.69,-34.35,0,*73
1508461393.73,947,14.94,73888.8,1.29,-32.39,-34.31,0,*73
1508461394.94,948,14.94,73888.0,1.29,-32.91,-34.71,0,*7A
1508461396.18,949,14.94,73886.5,1.29,-32.75,-34.59,0,*7B
1508461397.37,950,14.94,73886.0,1.27,-32.91,-34.71,0,*7D
1508461398.56,951,14.88,73884.5,1.27,-33.03,-34.89,0,*71
1508461399.77,952,14.94,73886.8,1.29,-32.91,-34.59,0,*7B
1508461400.96,953,14.94,73886.0,1.27,-32.69,-34.47,0,*7C
1508461402.17,954,14.94,73890.0,1.27,-32.39,-34.19,0,*75
1508461403.41,955,14.94,73886.8,1.29,-32.57,-34.35,0,*7C
1508461404.68,956,14.94,73886.8,1.29,-32.75,-34.53,0,*7F
1508461405.9,957,14.94,73890.3,1.29,-32.57,-34.47,0,*7B
1508461407.13,958,14.94,73890.5,1.29,-32.39,-34.31,0,*7D
1508461408.37,959,14.94,73886.3,1.29,-32.19,-34.13,0,*7E
1508461409.58,960,14.94,73886.8,1.31,-32.29,-34.13,0,*7E
1508461410.76,961,14.94,73886.5,1.31,-32.35,-34.13,0,*72
1508461411.99,962,14.94,73886.5,1.33,-32.63,-34.41,0,*77
1508461413.19,963,14.94,73884.3,1.31,-32.51,-34.47,0,*73
1508461414.41,964,14.94,73886.5,1.33,-33.03,-35.01,0,*73
1508461415.59,965,14.94,73884.8,1.31,-33.03,-34.89,0,*71
1508461416.8,966,14.94,73884.8,1.33,-33.15,-34.89,0,*77
1508461418.03,967,14.94,73884.0,1.33,-33.15,-34.83,0,*7C
1508461419.27,968,14.94,73886.5,1.31,-32.97,-34.83,0,*7A
1508461420.46,969,14.94,73884.5,1.31,-33.21,-35.01,0,*7C
1508461421.7,970,14.94,73886.3,1.33,-33.03,-34.83,0,*7D
1508461422.94,971,14.94,73890.0,1.33,-32.79,-34.71,0,*7D
1508461424.16,972,14.94,73886.5,1.31,-32.79,-34.71,0,*7C
1508461425.4,973,14.94,73886.5,1.33,-33.55,-35.41,0,*72
1508461426.66,974,14.94,73884.5,1.33,-33.31,-35.07,0,*75
1508461427.87,975,14.94,73880.0,1.33,-33.15,-34.89,0,*75
1508461429.06,976,14.94,73884.3,1.31,-33.15,-35.01,0,*75
1508461430.24,977,14.88,73880.3,1.31,-33.15,-34.89,0,*75
1508461431.51,978,14.94,73886.3,1.33,-32.85,-34.83,0,*7A
1508461432.76,979,14.94,73884.0,1.33,-32.97,-34.83,0,*78
1508461433.97,980,14.94,73886.5,1.31,-33.03,-34.83,0,*70
1508461435.18,981,14.94,73880.3,1.31,-33.15,-34.83,0,*76
1508461436.37,982,14.94,73884.3,1.31,-33.15,-34.89,0,*7F
1508461437.6,983,14.94,73884.5,1.33,-33.15,-35.07,0,*7B
1508461438.87,984,14.94,73884.8,1.33,-33.31,-35.07,0,*7A
1508461440.06,985,14.94,73886.3,1.31,-33.21,-34.89,0,*7F
1508461441.25,986,14.94,73886.3,1.31,-33.37,-35.17,0,*7D
1508461442.49,987,14.94,73886.3,1.33,-33.31,-35.17,0,*78
1508461443.71,988,14.94,73886.5,1.31,-33.37,-35.07,0,*72
1508461444.92,989,14.94,73884.0,1.31,-33.21,-35.07,0,*74
1508461446.12,990,14.94,73890.5,1.31,-33.21,-35.01,0,*7A
1508461447.33,991,14.94,73890.0,1.31,-33.21,-35.07,0,*7D
1508461448.58,992,14.94,73892.8,1.31,-33.31,-35.07,0,*7F
1508461449.79,993,14.94,73888.8,1.31,-33.43,-35.17,0,*7A
1508461451.01,994,14.88,73890.0,1.31,-33.21,-35.07,0,*78
1508461452.22,995,14.94,73894.5,1.31,-33.21,-35.07,0,*79
1508461453.44,996,14.94,73892.5,1.31,-33.31,-35.01,0,*7D
1508461454.67,997,14.94,73890.8,1.31,-33.31,-35.01,0,*7C
1508461455.89,998,14.94,73892.5,1.31,-33.31,-35.01,0,*73
1508461457.07,999,14.94,73890.0,1.31,-33.15,-34.89,0,*75
1508461458.27,1000,14.94,73892.3,1.31,-33.21,-35.01,0,*4B
1508461459.52,1001,14.94,73888.5,1.31,-33.31,-35.07,0,*4D
1508461460.74,1002,14.94,73894.0,1.31,-33.15,-35.07,0,*48
1508461461.94,1003,14.94,73890.0,1.31,-33.37,-35.17,0,*48
1508461463.14,1004,14.94,73888.5,1.31,-33.37,-35.17,0,*4F
1508461464.38,1005,14.88,73890.8,1.29,-33.43,-35.13,0,*40
1508461465.61,1006,14.88,73884.0,1.29,-33.37,-35.13,0,*40
1508461466.84,1007,14.94,73890.0,1.29,-33.37,-35.13,0,*41
1508461468.11,1008,14.94,73890.5,1.29,-33.43,-35.41,0,*4A
1508461469.38,1009,14.94,73890.8,1.29,-33.49,-35.41,0,*41
1508461470.61,1010,14.94,73890.0,1.27,-33.49,-35.29,0,*49
1508461471.86,1011,14.94,73886.5,1.29,-33.43,-35.29,0,*4C
1508461473.07,1012,14.88,73888.5,1.27,-33.37,-35.13,0,*4B
1508461474.31,1013,14.94,73888.5,1.29,-33.61,-35.29,0,*4E
1508461475.54,1014,14.94,73888.3,1.27,-33.43,-35.29,0,*47
1508461476.76,1015,14.94,73892.0,1.29,-33.67,-35.47,0,*46
1508461477.99,1016,14.94,73890.3,1.27,-33.77,-35.47,0,*4A
1508461479.24,1017,14.94,73890.5,1.29,-33.43,-35.29,0,*4A
1508461480.51,1018,14.94,73890.8,1.29,-33.43,-35.23,0,*4F
1508461481.78,1019,14.88,73886.3,1.29,-33.27,-34.95,0,*40
1508461483.0,1020,14.94,73886.8,1.27,-33.09,-34.89,0,*45
1508461484.22,1021,14.94,73886.5,1.27,-33.21,-34.95,0,*43
1508461485.45,1022,14.94,73886.5,1.27,-33.27,-35.13,0,*49
1508461486.67,1023,14.88,73884.5,1.27,-33.43,-35.13,0,*4A
1508461487.89,1024,14.94,73886.3,1.27,-33.37,-35.23,0,*4D
1508461489.12,1025,14.94,73886.5,1.27,-33.43,-35.29,0,*45
1508461490.34,1026,14.94,73886.5,1.27,-33.43,-35.29,0,*46
1508461491.59,1027,14.94,73886.5,1.25,-33.31,-35.17,0,*4D
1508461492.81,1028,14.94,73890.8,1.27,-33.21,-34.95,0,*4A
1508461494.06,1029,14.94,73886.3,1.29,-33.37,-35.07,0,*48
1508461495.3,1030,14.94,73888.5,1.25,-33.43,-35.17,0,*4E
1508461496.53,1031,14.88,73886.5,1.27,-33.37,-35.23,0,*49
1508461497.75,1032,14.88,73886.3,1.27,-33.21,-34.95,0,*41
1508461499.0,1033,14.94,73890.8,1.25,-33.43,-35.29,0,*40
1508461500.19,1034,14.94,73888.5,1.27,-32.91,-34.59,0,*4D
1508461501.42,1035,14.94,73886.8,1.27,-33.09,-34.71,0,*46
1508461502.69,1036,14.88,73882.5,1.29,-32.85,-34.53,0,*4E
1508461503.91,1037,14.94,73882.3,1.27,-32.85,-34.71,0,*41
1508461505.13,1038,14.88,73882.5,1.29,-32.91,-34.59,0,*4F
1508461506.37,1039,14.94,73882.0,1.29,-33.09,-34.71,0,*44
1508461507.6,1040,14.88,73884.0,1.27,-33.21,-34.95,0,*44
1508461508.84,1041,14.94,73890.5,1.27,-33.27,-35.07,0,*49
1508461510.09,1042,14.94,73890.5,1.29,-33.21,-34.95,0,*48
1508461511.34,1043,14.88,73888.5,1.27,-33.43,-35.23,0,*4F
1508461512.6,1044,14.88,73890.8,1.29,-33.61,-35.23,0,*46
1508461513.82,1045,14.88,73888.0,1.25,-33.55,-35.47,0,*4E
1508461515.06,1046,14.94,73892.3,1.27,-33.61,-35.41,0,*4E
1508461516.31,1047,14.94,73890.3,1.27,-33.49,-35.23,0,*41
1508461517.54,1048,14.94,73892.3,1.27,-33.43,-35.13,0,*47
1508461518.74,1049,14.94,73890.8,1.27,-33.37,-35.13,0,*45
1508461519.96,1050,14.94,73892.0,1.27,-33.27,-35.13,0,*4C
1508461521.21,1051,14.88,73890.8,1.27,-33.27,-35.07,0,*48
1508461522.41,1052,14.88,73890.5,1.27,-33.37,-35.13,0,*4F
1508461523.63,1053,14.94,73890.8,1.27,-33.09,-34.89,0,*41
1508461524.82,1054,14.94,73888.0,1.27,-33.03,-34.89,0,*4C
1508461526.02,1055,14.88,73890.5,1.27,-33.21,-34.89,0,*4D
1508461527.21,1056,14.94,73892.5,1.27,-32.91,-34.71,0,*43
1508461528.4,1057,14.94,73888.3,1.27,-32.91,-34.71,0,*42
1508461529.6,1058,14.94,73890.3,1.27,-33.03,-34.77,0,*41
1508461530.84,1059,14.88,73886.5,1.27,-33.27,-35.07,0,*40
1508461532.07,1060,14.88,73884.8,1.27,-33.43,-35.29,0,*44
1508461533.29,1061,14.94,73884.0,1.27,-33.61,-35.47,0,*4D
1508461534.52,1062,14.88,73886.5,1.27,-33.49,-35.29,0,*4C
1508461535.77,1063,14.88,73884.0,1.27,-33.61,-35.41,0,*49
1508461536.99,1064,14.88,73882.8,1.27,-33.77,-35.59,0,*40
1508461538.23,1065,14.88,73886.0,1.27,-33.61,-35.41,0,*4F
1508461539.49,1066,14.94,73890.5,1.23,-33.73,-35.53,0,*48
1508461540.73,1067,14.88,73890.3,1.25,-33.55,-35.35,0,*4B
1508461541.99,1068,14.94,73892.0,1.23,-33.73,-35.53,0,*46
1508461543.24,1069,14.88,73890.8,1.25,-33.83,-35.65,0,*4B
1508461544.46,1070,14.94,73892.5,1.23,-33.67,-35.35,0,*4A
1508461545.69,1071,14.88,73890.3,1.23,-33.43,-35.29,0,*40
1508461546.9,1072,14.94,73892.5,1.23,-33.55,-35.29,0,*44
1508461548.1,1073,14.88,73888.0,1.23,-33.67,-35.47,0,*4C
1508461549.33,1074,14.88,73890.0,1.23,-33.83,-35.53,0,*44
1508461550.56,1075,14.88,73890.3,1.23,-33.83,-35.53,0,*45
1508461551.81,1076,14.88,73888.3,1.25,-33.67,-35.35,0,*4A
1508461553.03,1077,14.88,73888.3,1.23,-33.55,-35.35,0,*4C
1508461554.25,1078,14.94,73894.3,1.23,-33.55,-35.35,0,*43
1508461555.53,1079,14.88,73892.0,1.21,-33.73,-35.41,0,*47
1508461556.78,1080,14.94,73892.3,1.21,-33.55,-35.41,0,*45
1508461558.05,1081,14.94,73892.8,1.17,-33.77,-35.41,0,*41
1508461559.32,1082,14.88,73892.3,1.21,-33.49,-35.23,0,*4E
1508461560.57,1083,14.94,73894.5,1.17,-33.77,-35.47,0,*45
1508461561.82,1084,14.94,73894.3,1.21,-33.89,-35.59,0,*49
1508461563.04,1085,14.88,73890.3,1.17,-33.67,-35.59,0,*4D
1508461564.27,1086,14.94,73890.3,1.17,-33.67,-35.47,0,*41
1508461565.52,1087,14.88,73886.8,1.21,-33.37,-35.07,0,*44
1508461566.79,1088,14.94,73888.3,1.21,-33.49,-35.35,0,*43
1508461568.04,1089,14.88,73886.3,1.17,-33.77,-35.47,0,*4F
1508461569.29,1090,14.88,73884.8,1.17,-33.77,-35.59,0,*48
1508461570.52,1091,14.88,73886.3,1.17,-33.83,-35.77,0,*4E
1508461571.77,1092,14.94,73888.5,1.17,-33.95,-35.65,0,*49
1508461573.0,1093,14.94,73888.0,1.17,-33.83,-35.77,0,*4C
1508461574.25,1094,14.94,73890.0,1.15,-33.77,-35.65,0,*41
1508461575.53,1095,14.94,73888.3,1.17,-33.61,-35.41,0,*43
1508461576.77,1096,14.88,73884.8,1.17,-33.77,-35.59,0,*4E
1508461577.98,1097,14.94,73884.5,1.15,-33.95,-35.77,0,*4D
1508461579.22,1098,14.88,73884.0,1.15,-34.01,-35.77,0,*48
1508461580.5,1099,14.88,73886.5,1.13,-33.89,-35.65,0,*4B
1508461581.75,1100,14.88,73884.3,1.13,-34.01,-35.71,0,*48
1508461583.01,1101,14.88,73882.3,1.13,-34.07,-35.83,0,*42
1508461584.28,1102,14.94,73886.3,1.15,-34.01,-35.83,0,*41
1508461585.51,1103,14.88,73882.3,1.13,-34.07,-35.71,0,*4D
1508461586.76,1104,14.88,73884.0,1.13,-34.01,-35.71,0,*4C
1508461588.02,1105,14.94,73886.3,1.11,-34.01,-35.83,0,*42
1508461589.25,1106,14.88,73886.3,1.11,-33.89,-35.71,0,*4B
1508461590.49,1107,14.88,73886.8,1.11,-34.07,-35.95,0,*41
1508461591.73,1108,14.88,73890.8,1.11,-33.89,-35.65,0,*40
1508461592.96,1109,14.88,73886.3,1.09,-33.95,-35.77,0,*46
1508461594.19,1110,14.94,73888.3,1.11,-33.83,-35.53,0,*46
1508461595.41,1111,14.94,73888.5,1.11,-33.89,-35.71,0,*4D
1508461596.64,1112,14.88,73888.8,1.11,-33.89,-35.71,0,*4E
1508461597.89,1113,14.88,73888.3,1.11,-33.73,-35.65,0,*4F
1508461599.12,1114,14.94,73892.5,1.09,-34.07,-35.71,0,*40
1508461600.4,1115,14.88,73890.0,1.09,-33.73,-35.53,0,*45
1508461601.67,1116,14.94,73890.3,1.09,-33.89,-35.53,0,*43
1508461602.92,1117,14.88,73886.0,1.11,-33.61,-35.35,0,*4D
1508461604.2,1118,14.88,73884.8,1.09,-33.73,-35.53,0,*48
1508461605.45,1119,14.88,73888.5,1.09,-33.89,-35.71,0,*4C
1508461606.7,1120,14.88,73886.3,1.09,-33.67,-35.41,0,*45
1508461607.98,1121,14.94,73890.0,1.09,-33.73,-35.53,0,*42
1508461609.26,1122,14.94,73890.5,1.09,-33.73,-35.53,0,*41
1508461610.51,1123,14.94,73890.3,1.09,-33.77,-35.59,0,*4E
1508461611.76,1124,14.94,73890.3,1.07,-33.77,-35.59,0,*47
1508461613.02,1125,14.88,73890.5,1.07,-33.61,-35.29,0,*46
1508461614.24,1126,14.88,73888.8,1.05,-33.61,-35.59,0,*40
1508461615.49,1127,14.88,73886.3,1.07,-33.61,-35.47,0,*4C
1508461616.73,1128,14.88,73890.8,1.05,-33.73,-35.47,0,*42
1508461617.98,1129,14.88,73884.3,1.07,-33.77,-35.59,0,*4A
1508461619.24,1130,14.88,73890.0,1.07,-33.73,-35.47,0,*49
1508461620.51,1131,14.88,73888.8,1.07,-33.61,-35.23,0,*49
1508461621.74,1132,14.88,73888.8,1.05,-33.61,-35.29,0,*42
1508461622.99,1133,14.88,73886.5,1.07,-33.55,-35.41,0,*48
1508461624.23,1134,14.88,73890.3,1.07,-33.37,-35.13,0,*4C
1508461625.5,1135,14.94,73892.3,1.07,-33.61,-35.41,0,*49
1508461626.76,1136,14.88,73888.0,1.07,-33.83,-35.65,0,*40
1508461628.01,1137,14.94,73894.0,1.07,-33.55,-35.41,0,*4C
1508461629.27,1138,14.88,73888.5,1.05,-33.73,-35.41,0,*45
1508461630.52,1139,14.88,73890.8,1.07,-33.61,-35.29,0,*4B
1508461631.74,1140,14.88,73888.5,1.05,-33.61,-35.47,0,*4F
1508461633.02,1141,14.88,73890.8,1.07,-33.61,-35.41,0,*4A
1508461634.27,1142,14.88,73890.0,1.05,-33.61,-35.41,0,*4B
1508461635.52,1143,14.88,73888.8,1.05,-33.73,-35.41,0,*49
1508461636.78,1144,14.88,73888.3,1.07,-33.73,-35.59,0,*45
1508461638.01,1145,14.88,73888.0,1.05,-33.77,-35.59,0,*42
1508461639.23,1146,14.88,73890.0,1.05,-33.77,-35.59,0,*41
1508461640.46,1147,14.88,73890.5,1.05,-33.61,-35.47,0,*48
1508461641.68,1148,14.88,73890.3,1.05,-33.73,-35.59,0,*4B
1508461642.92,1149,14.88,73888.5,1.05,-33.73,-35.47,0,*45
1508461644.15,1150,14.88,73890.3,1.05,-33.73,-35.47,0,*4D
1508461645.37,1151,14.88,73888.5,1.05,-33.61,-35.47,0,*4F
1508461646.62,1152,14.94,73894.3,1.03,-33.67,-35.35,0,*49
1508461647.87,1153,14.88,73888.0,1.03,-33.43,-35.17,0,*4E
1508461649.12,1154,14.88,73888.0,1.03,-33.49,-35.17,0,*43
1508461650.37,1155,14.88,73888.8,1.03,-33.27,-35.01,0,*4D
1508461651.64,1156,14.94,73892.0,1.03,-33.09,-34.95,0,*4E
1508461652.89,1157,14.88,73890.3,1.05,-33.43,-35.23,0,*4B
1508461654.09,1158,14.88,73888.8,1.05,-33.55,-35.29,0,*49
1508461655.32,1159,14.88,73888.3,1.05,-33.55,-35.41,0,*46
1508461656.56,1160,14.88,73888.3,1.05,-33.43,-35.23,0,*4F
1508461657.79,1161,14.88,73890.3,1.05,-33.61,-35.29,0,*44
1508461659.01,1162,14.88,73888.0,1.05,-33.77,-35.59,0,*47
1508461660.23,1163,14.94,73894.3,1.05,-33.77,-35.59,0,*46
1508461661.47,1164,14.88,73888.8,1.05,-33.73,-35.47,0,*4A
1508461662.72,1165,14.88,73890.0,1.03,-33.83,-35.53,0,*47
1508461663.92,1166,14.88,73892.0,1.01,-33.67,-35.47,0,*49
1508461665.17,1167,14.88,73890.0,1.03,-33.83,-35.65,0,*40
1508461666.41,1168,14.88,73890.0,1.01,-33.89,-35.65,0,*47
1508461667.66,1169,14.88,73890.0,1.03,-33.89,-35.71,0,*41
1508461668.91,1170,14.88,73888.3,1.03,-33.83,-35.65,0,*46
1508461670.15,1171,14.88,73890.8,1.01,-33.77,-35.65,0,*4E
1508461671.42,1172,14.88,73888.0,1.03,-33.77,-35.65,0,*4F
1508461672.65,1173,14.88,73888.5,1.01,-33.83,-35.65,0,*47
1508461673.87,1174,14.88,73892.3,1.01,-33.77,-35.47,0,*4B
1508461675.09,1175,14.88,73890.5,1.01,-33.61,-35.17,0,*48
1508461676.32,1176,14.88,73892.0,1.01,-33.61,-35.29,0,*46
1508461677.54,1177,14.88,73890.0,1.01,-33.43,-35.17,0,*4A
1508461678.76,1178,14.94,73890.5,1.01,-33.67,-35.35,0,*43
1508461679.99,1179,14.88,73888.0,1.01,-33.61,-35.29,0,*49
1508461681.18,1180,14.88,73890.3,1.01,-32.91,-34.71,0,*4D
1508461682.46,1181,14.88,73886.8,1.03,-33.27,-34.95,0,*48
1508461683.71,1182,14.88,73886.5,1.03,-33.27,-35.01,0,*47
1508461684.9,1183,14.88,73886.5,1.01,-32.91,-34.71,0,*4E
1508461686.15,1184,14.88,73884.3,1.03,-32.97,-34.71,0,*4D
1508461687.37,1185,14.88,73884.8,1.01,-33.15,-34.95,0,*4F
1508461688.64,1186,14.88,73888.0,1.03,-33.27,-34.95,0,*4F
1508461689.86,1187,14.88,73884.0,1.01,-32.97,-34.77,0,*4A
1508461691.11,1188,14.88,73886.8,1.03,-32.57,-34.35,0,*4D
1508461692.32,1189,14.88,73884.5,1.03,-32.39,-34.25,0,*45
1508461693.57,1190,14.88,73882.5,1.05,-32.19,-34.01,0,*4F
1508461694.79,1191,14.88,73884.5,1.07,-32.35,-34.13,0,*41
1508461696.04,1192,14.88,73882.5,1.07,-32.51,-34.31,0,*40
1508461697.29,1193,14.88,73882.5,1.07,-32.51,-34.19,0,*4B
1508461698.57,1194,14.88,73882.8,1.07,-32.85,-34.65,0,*4E
1508461699.85,1195,14.94,73882.3,1.09,-32.79,-34.65,0,*42
1508461701.13,1196,14.88,73876.5,1.09,-33.31,-35.07,0,*49
1508461702.38,1197,14.88,73876.3,1.09,-33.55,-35.41,0,*48
1508461703.64,1198,14.88,73876.0,1.07,-33.73,-35.47,0,*4B
1508461704.86,1199,14.88,73876.0,1.05,-33.61,-35.47,0,*4B
1508461706.15,1200,14.88,73878.3,1.07,-33.73,-35.41,0,*4F
1508461707.4,1201,14.88,73876.3,1.07,-33.55,-35.23,0,*4E
1508461708.61,1202,14.88,73876.8,1.05,-33.55,-35.23,0,*4F
1508461709.82,1203,14.88,73878.5,1.05,-33.55,-35.29,0,*44
1508461711.02,1204,14.94,73882.0,1.05,-33.37,-35.13,0,*4E
1508461712.27,1205,14.88,73878.3,1.05,-33.27,-35.07,0,*4B
1508461713.47,1206,14.88,73876.0,1.05,-33.55,-35.29,0,*41
1508461714.73,1207,14.88,73880.0,1.07,-33.21,-34.95,0,*47